Weather History for Andalusia, AL

Change the Weather History Date:

Tuesday, February 5, 2013

  Actual Average (KCEW) Record (KCEW)
Temperature  
Mean Temperature 60 °F -  
Max Temperature 66 °F 63 °F 78 °F (2008)
Min Temperature 53 °F 39 °F 16 °F (2009)
Degree Days  
Heating Degree Days 6    
Growing Degree Days 10 (Base 50)    
Moisture  
Dew Point 54 °F    
Average Humidity 82    
Maximum Humidity 88    
Minimum Humidity 63    
Precipitation  
Precipitation 0.10 in - - ()
Sea Level Pressure  
Sea Level Pressure 30.01 in    
Wind  
Wind Speed 1 mph (SE)    
Max Wind Speed 7 mph    
Max Gust Speed -    
Visibility 5 miles    
Events Fog , Rain    
Averages and records for this station are not official NWS values.
T = Trace of Precipitation, MM = Missing Value Source: NWS Daily Summary

Daily Weather History Graph

Daily Weather History Graph

Search for Another Location

Airport:

Trip Planner

Search our weather history database for the weather conditions in past years. The results will help you decide how hot, cold, wet, or windy it might be!

Date:

Astronomy

Feb. 05, 2013 Rise Set
Actual Time 6:35 AM CST 5:24 PM CST
Civil Twilight 6:09 AM CST 5:49 PM CST
Nautical Twilight 5:41 AM CST 6:18 PM CST
Astronomical Twilight 5:12 AM CST 6:47 PM CST
Moon 2:09 AM CST (2/5) 12:48 PM CST (2/5)
Length of Visible Light 11h 39m
Length of Day
10h 49m
Waning Crescent, 26% of the Moon is Illuminated
Feb 5
Waning Crescent
Feb 10
New
Feb 17
First Quarter
Feb 25
Full
Mar 4
Last Quarter

Hourly Weather History & Observations

Time (CST) Temp. Dew Point Humidity Pressure Visibility Wind Dir Wind Speed Gust Speed Precip Events Conditions
12:56 AM 53.1 °F 46.9 °F 80% 29.99 in 10.0 mi South 3.5 mph - 0.01 in Rain Light Rain
1:56 AM 53.1 °F 48.0 °F 83% 29.99 in 8.0 mi Calm Calm - 0.00 in Rain Light Rain
2:56 AM 55.0 °F 50.0 °F 83% 29.99 in 7.0 mi Calm Calm - 0.03 in Rain Light Rain
3:40 AM 53.6 °F 48.2 °F 82% 29.99 in 2.5 mi South 3.5 mph - 0.02 in Rain Light Rain
3:56 AM 54.0 °F 50.0 °F 86% 29.99 in 6.0 mi Calm Calm - 0.02 in   Overcast
4:56 AM 55.9 °F 51.1 °F 84% 29.99 in 10.0 mi Calm Calm - 0.00 in Rain Light Rain
5:56 AM 54.0 °F 50.0 °F 86% 30.01 in 5.0 mi Calm Calm - 0.00 in   Overcast
6:53 AM 53.6 °F 50.0 °F 88% 30.03 in 2.0 mi Calm Calm - N/A   Overcast
6:56 AM 54.0 °F 50.0 °F 86% 30.02 in 3.0 mi Calm Calm - N/A   Overcast
7:56 AM 57.0 °F 51.1 °F 81% 30.03 in 10.0 mi Calm Calm - 0.00 in   Overcast
8:56 AM 57.9 °F 52.0 °F 81% 30.05 in 10.0 mi Calm Calm - N/A   Overcast
9:56 AM 59.0 °F 52.0 °F 78% 30.06 in 10.0 mi Calm Calm - N/A   Overcast
10:56 AM 63.0 °F 54.0 °F 72% 30.05 in 10.0 mi Calm Calm - N/A   Overcast
11:56 AM 66.0 °F 54.0 °F 65% 30.03 in 10.0 mi Calm Calm - N/A   Overcast
12:56 PM 66.9 °F 54.0 °F 63% 30.00 in 10.0 mi Variable 4.6 mph - N/A   Overcast
1:24 PM 66.2 °F 55.4 °F 68% 30.01 in 10.0 mi Calm Calm - 0.00 in Rain Light Rain
1:39 PM 66.2 °F 55.4 °F 68% 30.00 in 6.0 mi Calm Calm - 0.00 in Rain Light Rain
1:56 PM 64.0 °F 55.9 °F 75% 30.00 in 3.0 mi Calm Calm - 0.01 in Rain Light Rain
2:07 PM 64.4 °F 57.2 °F 77% 30.00 in 1.8 mi Calm Calm - 0.01 in Rain Light Rain
2:16 PM 64.4 °F 57.2 °F 77% 30.00 in 1.2 mi Calm Calm - 0.03 in Rain Light Rain
2:20 PM 64.4 °F 57.2 °F 77% 29.99 in 2.5 mi NE 4.6 mph - 0.03 in Rain Light Rain
2:27 PM 64.4 °F 57.2 °F 77% 29.99 in 8.0 mi NNE 6.9 mph - 0.03 in Rain Light Rain
2:56 PM 63.0 °F 57.9 °F 84% 29.99 in 10.0 mi Calm Calm - 0.03 in   Overcast
3:56 PM 64.0 °F 57.0 °F 78% 29.99 in 10.0 mi Calm Calm - N/A   Overcast
4:47 PM 64.4 °F 57.2 °F 77% 29.98 in 10.0 mi Calm Calm - N/A   Overcast
4:56 PM 64.0 °F 57.9 °F 80% 29.98 in 10.0 mi Calm Calm - N/A   Overcast
5:45 PM 62.6 °F 57.2 °F 82% 29.99 in 10.0 mi South 3.5 mph - N/A   Overcast
5:56 PM 63.0 °F 57.0 °F 81% 29.98 in 10.0 mi South 4.6 mph - N/A   Overcast
6:56 PM 61.0 °F 55.9 °F 83% 30.00 in 10.0 mi Calm Calm - N/A   Partly Cloudy
7:21 PM 59.0 °F 53.6 °F 82% 30.00 in 1.8 mi SE 3.5 mph - N/A   Haze
7:26 PM 59.0 °F 55.4 °F 88% 30.01 in 3.0 mi Calm Calm - N/A   Clear
7:45 PM 59.0 °F 55.4 °F 88% 30.02 in 5.0 mi Calm Calm - N/A   Mostly Cloudy
7:55 PM 59.0 °F 55.0 °F 87% 30.02 in 2.5 mi Calm Calm - N/A   Mostly Cloudy
8:01 PM 57.2 °F 53.6 °F 88% 30.03 in 1.2 mi Calm Calm - N/A   Mostly Cloudy
8:11 PM 57.2 °F 53.6 °F 88% 30.03 in 2.0 mi Calm Calm - N/A   Haze
8:18 PM 57.2 °F 53.6 °F 88% 30.03 in 3.0 mi Calm Calm - N/A   Scattered Clouds
8:26 PM 57.2 °F 53.6 °F 88% 30.03 in 1.8 mi Calm Calm - N/A   Scattered Clouds
8:32 PM 57.2 °F 53.6 °F 88% 30.03 in 0.8 mi Calm Calm - N/A   Scattered Clouds
8:43 PM 57.2 °F 53.6 °F 88% 30.03 in 0.2 mi Calm Calm - N/A   Haze
8:56 PM 55.9 °F 52.0 °F 87% 30.03 in 0.2 mi Calm Calm - N/A Fog Fog
9:56 PM 55.0 °F 51.1 °F 86% 30.04 in 0.2 mi SE 3.5 mph - N/A Fog Fog
10:02 PM 55.4 °F 51.8 °F 88% 30.04 in 1.0 mi Calm Calm - 0.00 in Rain Light Rain
10:15 PM 55.4 °F 51.8 °F 88% 30.04 in 0.2 mi SE 4.6 mph - 0.00 in Fog Fog
10:56 PM 57.9 °F 54.0 °F 87% 30.04 in 0.2 mi SE 4.6 mph - 0.00 in Fog , Rain Light Rain
11:56 PM 57.9 °F 54.0 °F 87% 30.04 in 0.2 mi SE 3.5 mph - 0.00 in Fog , Rain Light Rain